Location: Debolt
(55.2626°N, 118.0981°W)
Time: 23:29:23
(UTC+00:00)

Oscar 19 - Visible Passes

Search period start: 01 December 2023 00:00
Search period end: 11 December 2023 00:00
Orbit: 771 x 789 km, 98.9° (Epoch: 30 November)

Date Brightness Start Highest point End Pass type
(mag) Time Alt. Az. Time Alt. Az. Time Alt. Az.
01 Dec 12.8 00:27:55 10° SSW 00:32:22 29° W 00:36:50 10° NNW visible
01 Dec 13.7 10:54:32 10° ENE 10:55:14 10° E 10:55:56 10° E visible
01 Dec 11.3 12:30:37 10° NNE 12:35:40 55° ESE 12:40:44 10° S visible
01 Dec 11.3 14:10:13 10° N 14:14:45 32° WNW 14:19:17 10° WSW visible
02 Dec 12.3 11:58:31 10° NNE 12:03:08 32° E 12:07:44 10° SSE visible
02 Dec 10.7 13:37:38 10° N 13:42:38 52° WNW 13:47:37 10° SW visible
03 Dec 13.5 01:04:09 10° SW 01:07:24 17° W 01:10:40 10° NW visible
03 Dec 13.1 11:26:47 10° NE 11:30:26 19° E 11:34:03 10° SE visible
03 Dec 10.5 13:05:11 10° NNE 13:10:22 86° WNW 13:15:32 10° SSW visible
03 Dec 11.8 14:45:16 10° N 14:49:00 21° NW 14:52:44 10° W visible
04 Dec 12.8 00:30:16 10° SSW 00:34:40 28° W 00:39:06 10° NW visible
04 Dec 13.7 10:56:24 10° ENE 10:57:33 11° E 10:58:42 10° E visible
04 Dec 11.2 12:32:52 10° NNE 12:37:58 56° ESE 12:43:03 10° S visible
04 Dec 11.3 14:12:30 10° N 14:17:01 31° WNW 14:21:31 10° WSW visible
05 Dec 12.2 12:00:46 10° NNE 12:05:25 33° E 12:10:04 10° SSE visible
05 Dec 10.7 13:39:55 10° N 13:44:54 50° WNW 13:49:52 10° SW visible
06 Dec 13.5 01:06:32 10° SW 01:09:42 16° W 01:12:53 10° NW visible
06 Dec 13.0 11:29:00 10° NE 11:32:43 20° E 11:36:26 10° SE visible
06 Dec 10.5 13:07:27 10° NNE 13:12:38 84° WNW 13:17:49 10° SSW visible
06 Dec 11.9 14:47:34 10° N 14:51:15 20° NW 14:54:57 10° W visible
07 Dec 12.9 00:32:36 10° SSW 00:36:57 28° W 00:41:20 10° NW visible
07 Dec 13.6 10:58:23 10° ENE 10:59:52 11° E 11:01:19 10° E visible
07 Dec 11.1 12:35:08 10° NNE 12:40:15 58° ESE 12:45:21 10° S visible
07 Dec 11.3 14:14:47 10° N 14:19:16 31° WNW 14:23:45 10° WSW visible
07 Dec 11.9 23:59:25 10° S 00:04:21 47° W 00:09:19 10° NNW visible
08 Dec 12.1 12:03:00 10° NNE 12:07:42 34° E 12:12:23 10° SSE visible
08 Dec 10.8 13:42:11 10° N 13:47:09 49° WNW 13:52:07 10° SW visible
09 Dec 13.5 01:08:55 10° WSW 01:12:00 16° W 01:15:04 10° NW visible
09 Dec 13.0 11:31:12 10° NE 11:35:00 20° E 11:38:48 10° SE visible
09 Dec 10.5 13:09:43 10° NNE 13:14:54 82° WNW 13:20:05 10° SSW visible
09 Dec 11.9 14:49:51 10° N 14:53:29 20° NW 14:57:08 10° W visible
10 Dec 12.9 00:34:55 10° SSW 00:39:13 27° W 00:43:34 10° NW visible
10 Dec 13.6 11:00:25 10° ENE 11:02:09 12° E 11:03:53 10° ESE visible
10 Dec 11.1 12:37:23 10° NNE 12:42:30 60° ESE 12:47:37 10° S visible
10 Dec 11.4 14:17:03 10° N 14:21:30 30° WNW 14:25:57 10° WSW visible
